Вернуться в каталог

METEOR 2-17 DEB

АктивенPO
NORAD 38284·DEBRIS·🇷🇺 Russia

Запущен Jan 30, 1988 с Plesetsk Cosmodrome

Loading…

Ближайшие Пролёты (ближайшие 24 часа)

TLE

СвежийSource: Space-Track

Эпоха: Sep 14, 2026, 01:44 UTC

1 38284U 88005AM  26257.07273392  .00001954  00000-0  11973-2 0  9993
2 38284  82.5339 187.4565 0019749 259.1633 100.7316 14.05258620606229

Отслеживайте METEOR 2-17 DEB в реальном времени с AllMySat

Download on the App Store